WX4FUN-13 Weather Reports


time (UTC)temp
C
wind
direction
speed
KPH
gust
KPH
rain 1hr
cm
rain 24hr
cm
rain mn
cm
humidity
%
barometer
mb
20260507031217 11 290 0.0 3.2 0.00 0.41 0.41 89 1009.2
20260507030218 12 231 1.6 4.8 0.00 0.41 0.41 88 1009.1
20260507025218 12 242 1.6 8.0 0.00 0.41 0.41 87 1008.9
20260507024216 12 253 1.6 3.2 0.00 0.41 0.41 89 1009.0
20260507022217 12 0 0.0 3.2 0.00 0.41 0.41 88 1008.7
20260507021200 13 202 1.6 3.2 0.00 0.41 0.41 87 1008.7
20260507020202 13 247 1.6 6.4 0.05 0.41 0.41 87 1008.5
20260507015157 13 185 3.2 11.3 0.05 0.41 0.41 87 1008.3
20260507014152 13 237 3.2 9.7 0.05 0.41 0.41 86 1008.2
20260507013149 14 234 3.2 6.4 0.05 0.41 0.41 87 1008.4
20260507012135 14 239 3.2 11.3 0.05 0.41 0.41 92 1008.1
20260507011133 15 238 3.2 8.0 0.05 0.41 0.41 96 1007.9
20260507010135 15 219 1.6 3.2 0.00 0.36 0.36 96 1007.4
20260507005135 15 261 1.6 3.2 0.00 0.36 0.36 96 1007.3
20260507004134 15 238 1.6 3.2 0.00 0.36 0.36 96 1007.2
20260507003119 15 229 1.6 4.8 0.00 0.36 0.36 96 1007.1
20260507002102 15 279 1.6 3.2 0.00 0.36 0.36 96 1007.2
20260507001105 15 217 3.2 4.8 0.00 0.36 0.36 95 1007.3
20260507000105 15 255 1.6 4.8 0.00 0.36 0.36 95 1007.3
20260506235106 15 238 3.2 4.8 0.00 0.36 0.36 95 1007.2
20260506234051 15 226 1.6 3.2 0.00 0.36 0.36 95 1007.0
20260506233036 15 233 1.6 3.2 0.00 0.36 0.36 95 1007.0
20260506232038 15 231 1.6 4.8 0.00 0.36 0.36 95 1006.9
20260506231036 15 230 1.6 3.2 0.00 0.36 0.36 95 1006.9
20260506230036 15 244 1.6 4.8 0.00 0.36 0.36 95 1006.8
20260506225037 15 235 1.6 4.8 0.00 0.36 0.36 95 1006.7
20260506224023 15 228 1.6 3.2 0.05 0.36 0.36 95 1006.6
20260506223024 15 238 3.2 4.8 0.08 0.36 0.36 95 1006.7
20260506222021 15 234 1.6 3.2 0.05 0.33 0.33 95 1006.6
20260506221022 15 238 3.2 6.4 0.08 0.33 0.33 95 1006.6
20260506220022 15 226 1.6 4.8 0.08 0.33 0.33 95 1006.7
20260506215022 15 220 1.6 4.8 0.08 0.33 0.33 95 1006.8
20260506214023 15 241 1.6 4.8 0.03 0.28 0.28 95 1006.8
20260506213006 15 245 3.2 6.4 0.03 0.28 0.28 95 1006.9
20260506212008 15 248 3.2 4.8 0.03 0.28 0.28 95 1006.9
20260506211009 15 231 1.6 4.8 0.00 0.25 0.25 95 1006.9
20260506210008 15 223 3.2 4.8 0.00 0.28 0.25 95 1006.9
20260506204953 15 253 1.6 8.0 0.00 0.28 0.25 94 1007.0
20260506203938 15 269 1.6 4.8 0.00 0.28 0.25 94 1007.0
20260506202940 15 239 3.2 4.8 0.00 0.28 0.25 94 1007.1
20260506201939 15 250 1.6 4.8 0.03 0.28 0.25 93 1007.2
20260506200939 15 251 3.2 4.8 0.03 0.28 0.25 92 1007.3
20260506195939 15 226 3.2 9.7 0.03 0.30 0.25 92 1007.4
20260506194939 15 228 3.2 9.7 0.03 0.30 0.25 92 1007.5
20260506193926 15 241 1.6 4.8 0.00 0.28 0.25 92 1007.6
20260506192926 15 217 3.2 4.8 0.03 0.28 0.25 91 1007.8
20260506191926 15 238 3.2 6.4 0.05 0.28 0.23 91 1007.8
20260506190926 15 239 3.2 6.4 0.05 0.28 0.23 91 1007.8
20260506185925 15 257 3.2 8.0 0.05 0.28 0.23 90 1007.9
20260506184926 16 239 3.2 11.3 0.08 0.28 0.23 90 1008.0
20260506183926 16 284 3.2 8.0 0.10 0.28 0.23 90 1008.0
20260506182908 16 268 3.2 8.0 0.10 0.25 0.23 90 1007.9
20260506181909 16 244 3.2 8.0 0.13 0.23 0.20 90 1008.0
20260506180910 16 294 3.2 4.8 0.15 0.23 0.18 90 1008.0
20260506175909 16 228 3.2 4.8 0.15 0.23 0.18 89 1007.9
20260506174909 16 303 3.2 8.0 0.15 0.20 0.18 88 1008.2
20260506173911 16 227 3.2 6.4 0.15 0.18 0.15 86 1008.2
20260506172911 17 225 3.2 4.8 0.10 0.15 0.10 83 1008.7
20260506171910 17 236 3.2 8.0 0.05 0.10 0.05 81 1008.9
20260506170859 18 218 3.2 9.7 0.05 0.10 0.05 78 1009.1
20260506165900 18 224 4.8 9.7 0.05 0.08 0.05 75 1009.1
20260506164858 19 236 3.2 9.7 0.03 0.08 0.03 74 1008.9
20260506163857 20 262 4.8 8.0 0.00 0.05 0.00 71 1008.9
20260506162859 20 337 4.8 8.0 0.00 0.05 0.00 69 1008.7
20260506161858 20 245 3.2 6.4 0.00 0.05 0.00 68 1008.7
20260506160859 20 245 3.2 11.3 0.00 0.05 0.00 67 1008.9
20260506155842 20 255 4.8 11.3 0.00 0.05 0.00 67 1009.2
20260506154843 20 239 3.2 6.4 0.00 0.05 0.00 68 1009.3
20260506153843 20 255 4.8 9.7 0.00 0.05 0.00 68 1009.3
20260506152831 20 265 3.2 8.0 0.00 0.05 0.00 68 1009.4
20260506151829 20 247 3.2 8.0 0.00 0.05 0.00 69 1009.6
20260506150829 19 244 4.8 8.0 0.00 0.05 0.00 70 1009.6
20260506145821 19 19 3.2 9.7 0.00 0.05 0.00 72 1009.7
20260506144811 18 209 4.8 9.7 0.00 0.05 0.00 73 1009.8
20260506143815 18 226 4.8 8.0 0.00 0.05 0.00 73 1009.9
20260506142814 18 245 3.2 8.0 0.00 0.05 0.00 73 1009.9
20260506141811 18 253 3.2 9.7 0.00 0.05 0.00 74 1010.0
20260506140814 18 253 3.2 6.4 0.00 0.05 0.00 75 1009.9
20260506135814 18 234 3.2 6.4 0.00 0.05 0.00 75 1009.9
20260506134800 17 231 3.2 6.4 0.00 0.05 0.00 77 1009.8
20260506133800 17 246 3.2 4.8 0.00 0.05 0.00 77 1009.7
20260506132759 17 221 3.2 6.4 0.00 0.05 0.00 78 1009.7
20260506131800 17 211 3.2 6.4 0.00 0.05 0.00 78 1009.9
20260506130801 16 293 3.2 6.4 0.00 0.05 0.00 79 1010.0
20260506125800 16 252 3.2 6.4 0.00 0.05 0.00 80 1010.0
20260506124747 16 255 3.2 4.8 0.00 0.05 0.00 80 1010.1
20260506123745 16 290 3.2 8.0 0.00 0.05 0.00 81 1010.3
20260506122747 16 230 3.2 8.0 0.00 0.05 0.00 80 1010.4
20260506121746 16 269 3.2 6.4 0.00 0.05 0.00 81 1010.4
20260506120746 16 242 3.2 6.4 0.00 0.05 0.00 82 1010.1
20260506115731 16 216 3.2 6.4 0.00 0.05 0.00 81 1010.4
20260506114731 16 218 3.2 6.4 0.00 0.05 0.00 82 1010.2
20260506113733 15 260 3.2 8.0 0.00 0.05 0.00 82 1010.4
20260506112718 15 238 3.2 4.8 0.00 0.05 0.00 82 1010.3
20260506111716 15 236 1.6 3.2 0.00 0.05 0.00 83 1010.1
20260506110716 15 234 3.2 4.8 0.00 0.05 0.00 84 1010.6
20260506105702 14 223 1.6 3.2 0.00 0.05 0.00 85 1010.6
20260506104647 14 232 1.6 3.2 0.00 0.05 0.00 85 1010.5
20260506103634 14 231 1.6 3.2 0.00 0.05 0.00 85 1010.6
20260506102634 14 224 1.6 3.2 0.00 0.05 0.00 85 1010.4
20260506101632 14 223 1.6 3.2 0.00 0.05 0.00 85 1010.2
20260506100633 14 233 1.6 3.2 0.00 0.05 0.00 85 1010.2
20260506095633 14 235 1.6 4.8 0.00 0.05 0.00 85 1010.2
20260506094618 14 230 1.6 4.8 0.00 0.05 0.00 85 1010.2
20260506093622 14 229 0.0 1.6 0.00 0.05 0.00 84 1010.3
20260506092618 14 253 1.6 3.2 0.00 0.05 0.00 84 1010.1
20260506091618 14 0 1.6 3.2 0.00 0.05 0.00 84 1010.2
20260506090618 14 223 1.6 4.8 0.00 0.05 0.00 83 1010.3
20260506085605 14 224 1.6 3.2 0.00 0.05 0.00 83 1010.2
20260506084605 14 224 1.6 3.2 0.00 0.05 0.00 82 1010.3
20260506083605 15 214 0.0 1.6 0.00 0.05 0.00 82 1010.4
20260506082605 15 222 0.0 1.6 0.00 0.05 0.00 82 1010.4
20260506081605 15 231 0.0 3.2 0.00 0.05 0.00 81 1010.3
20260506080605 15 0 0.0 3.2 0.00 0.05 0.00 81 1010.3
20260506072551 15 242 1.6 4.8 0.00 0.05 0.00 79 1010.1
20260506071552 15 235 3.2 3.2 0.00 0.05 0.00 78 1010.1
20260506070535 16 229 3.2 4.8 0.00 0.05 0.00 78 1010.1
20260506061521 16 258 3.2 6.4 0.00 0.05 0.00 75 1009.9
20260506060506 16 219 4.8 8.0 0.00 0.05 0.00 74 1009.9
20260506050423 17 140 3.2 6.4 0.00 0.05 0.00 69 1010.2
20260506044422 17 213 3.2 4.8 0.00 0.05 0.00 68 1010.2
20260506043422 17 264 3.2 9.7 0.00 0.05 0.00 68 1010.1
20260506042422 17 248 3.2 8.0 0.00 0.05 0.00 68 1010.1
20260506041422 17 253 3.2 6.4 0.00 0.05 0.00 67 1010.1
20260506040423 17 224 3.2 9.7 0.00 0.05 0.00 67 1010.1
20260506035423 17 232 3.2 6.4 0.00 0.05 0.05 67 1010.3
20260506034424 17 239 3.2 9.7 0.00 0.05 0.05 66 1010.3
20260506033424 17 189 3.2 9.7 0.00 0.05 0.05 67 1010.4
20260506032423 17 210 3.2 9.7 0.00 0.05 0.05 67 1010.4